Location: Corralito
(10.2667°N, 66.9500°W)
Time: 08:45:40
(UTC+00:00)

Cosmos 1331 Rocket - Pass Details

Date: 10 December 2023
Orbit: 748 x 775 km, 74.0° (Epoch: 24 February)

Event Time Altitude Azimuth Distance (km) Brightness Sun altitude
Rises 08:48:51 0° 21° (NNE) 3,196 7.2 -25.0°
Reaches altitude 10° 08:53:02 10° 54° (NE) 2,266 6.8 -24.0°
Maximum altitude 08:54:42 11° 73° (ENE) 2,163 7.0 -23.6°
Drops below altitude 10° 08:56:21 10° 93° (E) 2,263 7.4 -23.2°
Sets 09:00:29 0° 125° (SE) 3,185 8.5 -22.3°
